FALCON 9 DEB (52709 NORAD) Tracking and Keplerian Element Data
This shows tracking and keplerian element data for the satellite.
Feedback or suggestion? Click here.
Element | Value |
Catalog | 52709 |
Name | FALCON 9 DEB |
Epoch Orbit | 964 |
Epoch Day | 191.64939247 |
Epoch Year | 2022 |
RAAN | 24.1597 |
Inclination | 53.1983 |
Eccentricity | 0.0008633 |
Argument of Perigee | 279.5401 |
Mean Anonmoly | 80.4675 |
Mean Motion | 16.46511312 |
Decay Rate | 0.10257603 |
L1 | 1 52709U 22053BF 22191.64939247 .10257603 12553-4 20423-3 0 9992 |
L2 | 2 52709 53.1983 24.1597 0008633 279.5401 80.4675 16.46511312 9649 |
Live tracking and technical data element details for FALCON 9 DEB (NORAD 52709). FALCON 9 DEB can be tracked NOW for your location showing map with azimuth and elevation plus other details from your city location.
Track the satellite on the map from your city or location and see movement details for azimuth, elevation, latitude, longitude, range, height, and movement on the map or in text.
IsCatalogInMostPopularTable: catalog: 52709, numindb: 7
Update: records affected: 1
GetName: 52709 FALCON 9 DEB
Hit Count: updated at: Sun, 14 Aug 2022 01:39:53 GMT